Volver al catálogo

STARLINK-36387

ActivoComunicacionesSSO
NORAD 67610·PAYLOAD·🇺🇸 United States

Lanzado Jan 29, 2026 desde Vandenberg Space Force Base

Loading…

Próximos Pases (próximas 24 horas)

TLE

ActualizadoSource: CelesTrak SupGP

Época: Sep 15, 2026, 04:19 UTC

1 67610C 26018X   26258.18034722 -.00013214  00000+0 -41014-3 0  2580
2 67610  97.2848 328.4495 0000887  86.1837  21.4726 15.33450396    13

Sigue STARLINK-36387 en tiempo real con AllMySat

Download on the App Store